Flag for Netherlands Weather past 2 weeks in Emmen, Netherlands

Now
55 °F

Cool.


Feels Like: 54 °F
Forecast: 43 / 60 °F
Wind: 6 mph from West

Location: Meppen

Current Time: May 30, 2015 at 9:21:01 PM

Latest Report: May 30, 2015 at 8:00 PM


Visibility: 8 mi

Pressure: 29.98 "Hg

Humidity: 49%

Dew point: 36 °F

Location of EmmenLocation

Historic Weather in Emmen — Graph

°F

Emmen temperature yesterday

Maximum temperature yesterday: 61 °F (at 4:00 PM)
Minimum temperature yesterday: 37 °F (at 6:00 AM)
Average temperature yesterday: 51 °F

Past Weeks' High & Low Weather Summary

 TemperatureHumidityPressure
High67 °F (May 22, 3:00 PM)96% (May 29, 7:00 AM)30.33 "Hg (May 29, 7:00 AM)
Low33 °F (May 24, 6:00 AM)26% (May 24, 7:00 PM)29.59 "Hg (May 19, 4:00 AM)
Average52 °F69%30.03 "Hg
* Reported May 15 8:00 PM — May 30 8:00 PM, Emmen, Weather by CustomWeather, © 2015

Note: Actual official high and low records may vary slightly from our data, if they occured in-between our weather recording intervals... More about our weather records

Advertising

Emmen weather history for previous 24 hours

 ConditionsComfort  
Time TempWeatherWind HumidityBarometerVisibility
8:00 PM
Sat, May 30
55 °FCool.6 mph49%29.98 "Hg8 mi
7:00 PM57 °FRefreshingly cool.7 mph46%29.97 "Hg7 mi
6:00 PM56 °FRefreshingly cool.8 mph48%29.95 "Hg7 mi
4:00 PM56 °FRefreshingly cool.7 mph55%29.92 "Hg6 mi
3:00 PM55 °FCool.5 mph61%29.90 "Hg6 mi
1:00 PM52 °FCool.3 mph66%29.88 "Hg6 mi
12:00 PM53 °FCool.3 mph79%29.85 "Hg6 mi
10:00 AM43 °FQuite cool.8 mph82%29.85 "Hg2 mi
9:00 AM47 °FCool.2 mph85%29.82 "Hg7 mi
7:00 AM46 °FCool.5 mph85%29.79 "Hg6 mi
6:00 AM46 °FCool.5 mph86%29.78 "Hg7 mi
4:00 AM48 °FCool.5 mph79%29.74 "Hg7 mi
3:00 AM48 °FCool.5 mph80%29.73 "Hg7 mi
1:00 AM49 °FCool.6 mph79%29.70 "Hg7 mi
12:00 AM50 °FCool.6 mph76%29.69 "Hg7 mi
10:00 PM
Fri, May 29
52 °FCool.6 mph77%29.68 "Hg6 mi
9:00 PM56 °FCool.8 mph62%29.66 "Hg7 mi
Weather by CustomWeather, © 2015

See weather overviewHow to use our weather pages